[[{"header":{"parameterUnit":"m.s-1","parameterCategory":1,"la1":30.2992,"la2":30.254,"lo1":-89.0895,"lo2":-89.0443,"dy":0.0025,"dx":0.0025,"nx":19,"ny":19,"refTime":"2026-05-18T21:00:00:Z","depth":0,"parameterNumber":2,"parameterNumberName":"U-component_of_WINDS"},"data":[0,0,0,-2.0092,-2.0094,-2.0178,-2.0178,-2.0289,-2.029,0,0,0,0,0,0,0,0,0,0,0,-2.0068,-2.0069,-2.0092,-2.0094,-2.0177,-2.0178,-2.0289,-2.029,0,0,0,0,0,0,0,0,0,0,0,-2.0068,-2.0069,-2.007,-2.0094,-2.0177,-2.0178,-2.0289,-2.0224,0,0,0,0,0,0,0,0,0,0,-2.0142,-2.0122,-2.0069,-2.007,-2.0095,-2.0177,-2.0178,-2.0221,-2.0228,-2.0253,0,-2.0273,0,-2.0283,-2.0298,-2.0298,0,0,0,-2.0093,-2.0116,-2.0137,-2.007,-2.0095,-2.0177,-2.014,-2.0225,-2.0233,-2.0262,-2.0275,-2.0279,-2.0285,-2.0298,-2.0299,-2.0438,-2.0439,0,0,-2.0089,-2.0085,-2.0131,-2.0142,-2.0128,-2.0137,-2.0142,-2.023,-2.0244,-2.0275,-2.0282,-2.0287,-2.0299,-2.03,-2.0437,-2.0438,0,0,0,-2.0076,-2.0081,-2.01,-2.0138,-2.0152,-2.0139,-2.0145,-2.024,-2.0247,-2.0283,-2.0288,-2.03,-2.0301,-2.0437,-2.0438,-2.0467,0,0,0,-2.0073,-2.0074,-2.0098,-2.0097,-2.0151,-2.0197,-2.0154,-2.0241,-2.0251,-2.0288,-2.03,-2.0302,-2.0436,-2.0437,-2.0464,-2.0481,0,0,0,-2.0063,-2.0073,-2.0085,-2.0096,-2.0132,-2.0196,-2.0207,-2.0243,-2.0254,-2.0298,-2.0303,-2.0435,-2.0437,-2.0462,-2.0478,-2.0516,0,0,0,-2.0051,-2.0111,-2.0085,-2.0155,-2.0131,-2.0213,-2.0207,-2.0268,-2.0309,-2.03,-2.0436,-2.0438,-2.0461,-2.0476,-2.0514,-2.0548,-2.0561,0,0,-2.0124,-2.0119,-2.016,-2.014,-2.0225,-2.02,-2.029,-2.0332,-2.0341,-2.0405,-2.0409,-2.0465,-2.0478,-2.0516,-2.064,-2.0651,0,0,0,-2.0182,-2.0212,-2.0235,-2.0273,-2.0306,-2.0336,-2.0364,-2.038,-2.0435,-2.0373,-2.049,-2.0497,-2.052,-2.0536,-2.0545,-2.0565,-2.0445,-2.0445,-2.0445,-2.0281,-2.0288,-2.0356,-2.0372,-2.041,-2.0438,-2.0469,-2.0495,-2.0492,-2.052,-2.0539,-2.0613,-2.0632,-2.0639,-2.0659,-2.0557,-2.0558,-2.0558,-2.0558,-2.0389,-2.0432,-2.0425,-2.0488,-2.0495,-2.0549,-2.0579,-2.0575,-2.0627,-2.0599,-2.062,-2.0589,-2.0651,-2.0669,-2.056,-2.056,-2.0559,-2.0559,-2.0559,-2.0455,-2.0476,-2.0493,-2.0548,-2.0591,-2.0606,-2.0655,-2.066,-2.0666,-2.0686,-2.0706,-2.0706,-2.0706,-2.0695,-2.0696,-2.0696,-2.0696,-2.0696,-2.0696,-2.0515,-2.0534,-2.0574,-2.0613,-2.0638,-2.0671,-2.07,-2.0726,-2.0755,-2.0755,-2.0755,-2.0749,-2.0655,-2.0631,-2.07,-2.07,-2.0699,-2.0699,-2.0698,-2.0622,-2.0599,-2.0661,-2.0686,-2.0732,-2.0774,-2.0779,-2.0829,-2.0851,-2.0875,-2.0865,-2.0795,-2.0791,-2.0784,-2.0764,-2.0863,-2.0863,-2.0863,-2.0863,-2.0677,-2.0675,-2.074,-2.0779,-2.0818,-2.0829,-2.09,-2.0923,-2.0944,-2.0958,-2.0944,-2.0919,-2.0911,-2.0911,-2.0901,-2.0883,-2.101,-2.1011,-2.1011,-2.0743,-2.0745,-2.0804,-2.0822,-2.0859,-2.089,-2.0957,-2.1003,-2.1022,-2.1017,-2.0969,-2.0962,-2.0921,-2.0908,-2.0901,-2.0885,-2.0852,0,0]},{"header":{"parameterUnit":"m.s-1","parameterCategory":1,"la1":30.2992,"la2":30.254,"lo1":-89.0895,"lo2":-89.0443,"dy":0.0025,"dx":0.0025,"nx":19,"ny":19,"refTime":"2026-05-18T21:00:00:Z","depth":0,"parameterNumber":3,"parameterNumberName":"V-component_of_WINDS"},"data":[0,0,0,2.8935,2.8936,2.899,2.899,2.9059,2.906,0,0,0,0,0,0,0,0,0,0,0,2.8921,2.8921,2.8935,2.8937,2.899,2.899,2.9059,2.906,0,0,0,0,0,0,0,0,0,0,0,2.8921,2.8921,2.8922,2.8937,2.899,2.899,2.9059,2.9018,0,0,0,0,0,0,0,0,0,0,2.8966,2.8954,2.8921,2.8922,2.8937,2.899,2.899,2.9016,2.9021,2.9035,0,2.905,0,2.9056,2.9065,2.9065,0,0,0,2.8935,2.895,2.8964,2.8922,2.8938,2.899,2.8966,2.9019,2.9024,2.9041,2.9051,2.9054,2.9057,2.9065,2.9065,2.9159,2.916,0,0,2.8932,2.8931,2.896,2.8967,2.896,2.8964,2.8967,2.9022,2.9032,2.9051,2.9055,2.9059,2.9065,2.9066,2.9159,2.916,0,0,0,2.8925,2.8929,2.8941,2.8964,2.8974,2.8965,2.8969,2.9029,2.9033,2.9056,2.9059,2.9066,2.9067,2.9158,2.9159,2.9184,0,0,0,2.8923,2.8925,2.894,2.8939,2.8973,2.9003,2.8976,2.9029,2.9036,2.9059,2.9066,2.9067,2.9158,2.9159,2.9182,2.9195,0,0,0,2.8917,2.8924,2.8932,2.8939,2.8962,2.9002,2.9009,2.9031,2.9038,2.9065,2.9068,2.9157,2.9159,2.918,2.9193,2.922,0,0,0,2.891,2.8952,2.8933,2.8981,2.8962,2.9017,2.9009,2.9049,2.9075,2.9066,2.9158,2.9159,2.918,2.9191,2.9218,2.9243,2.9254,0,0,2.8963,2.8959,2.8988,2.8972,2.903,2.9009,2.9071,2.9095,2.9098,2.9138,2.9141,2.9183,2.9193,2.922,2.9312,2.932,0,0,0,2.9004,2.9025,2.9041,2.9066,2.9087,2.9105,2.9121,2.913,2.9165,2.9119,2.92,2.9206,2.9222,2.9234,2.9241,2.9255,2.9165,2.9164,2.9164,2.9077,2.908,2.9128,2.9137,2.9162,2.9178,2.9198,2.9213,2.9207,2.9226,2.9239,2.9294,2.9308,2.9313,2.9328,2.9252,2.9252,2.9252,2.9252,2.9155,2.9185,2.9178,2.9222,2.9225,2.9261,2.9278,2.9273,2.9307,2.9285,2.9299,2.9275,2.9322,2.9335,2.9254,2.9254,2.9253,2.9253,2.9253,2.9203,2.9218,2.923,2.9267,2.9296,2.9304,2.9337,2.9338,2.9338,2.9352,2.9365,2.9365,2.9364,2.9358,2.9359,2.9359,2.9359,2.9359,2.9359,2.9249,2.9261,2.929,2.9316,2.9333,2.9355,2.9372,2.9388,2.9406,2.9403,2.9404,2.9396,2.9327,2.9309,2.9362,2.9362,2.9361,2.9361,2.9361,2.9327,2.931,2.9354,2.9371,2.9402,2.9431,2.9432,2.9465,2.9478,2.9494,2.9484,2.9433,2.9428,2.9423,2.9408,2.9484,2.9484,2.9484,2.9484,2.9368,2.9366,2.9412,2.9439,2.9466,2.9472,2.9521,2.9534,2.9545,2.9554,2.9543,2.9524,2.9518,2.9517,2.9509,2.9496,2.9592,2.9592,2.9592,2.9416,2.9417,2.946,2.9472,2.9496,2.9517,2.9563,2.9594,2.9603,2.9596,2.956,2.9556,2.9525,2.9515,2.9507,2.9495,2.9471,0,0]}]]